Change the Weather History Date:

Monday, July 22, 2013

  Actual Average Record
Temperature  
Mean Temperature 60 °F -  
Max Temperature 64 °F 61 °F 75 °F (1997)
Min Temperature 55 °F 51 °F 48 °F (2010)
Degree Days  
Heating Degree Days 6    
Growing Degree Days 10 (Base 50)    
Moisture  
Dew Point 53 °F    
Average Humidity 77    
Maximum Humidity 88    
Minimum Humidity 63    
Precipitation  
Precipitation 0.00 in - - ()
Sea Level Pressure  
Sea Level Pressure 30.06 in    
Wind  
Wind Speed 11 mph ()    
Max Wind Speed 24 mph    
Max Gust Speed -    
Visibility 8.5 miles    
Events Fog    
Averages and records for this station are not official NWS values.
T = Trace of Precipitation, MM = Missing Value Source: Averaged Metar Reports

Daily Weather History Graph

Daily Weather History Graph

Search for Another Location

Airport or City:

Trip Planner

Search our weather history database for the weather conditions in past years. The results will help you decide how hot, cold, wet, or windy it might be!

Date:

Astronomy

Jul. 22, 2013 Rise Set
Actual Time 4:48 AM BST 9:49 PM BST
Civil Twilight 3:50 AM BST 10:47 PM BST
Nautical Twilight 1:26 AM BST 12:52 AM BST
Astronomical Twilight Sun does not rise Sun does not rise
Moon 9:02 PM BST (7/22) 4:41 AM BST (7/22)
Length of Visible Light 18h 57m
Length of Day
17h 01m
Full, 100% of the Moon is Illuminated
Jul 22
Full
Jul 22
Full
Jul 29
Last Quarter
Aug 6
New
Aug 14
First Quarter

Hourly Weather History & Observations

Time (BST) Temp. Dew Point Humidity Pressure Visibility Wind Dir Wind Speed Gust Speed Precip Events Conditions
12:50 AM 57 °F 53 °F 82% 30.16 in 16 mi East 10.4 mph - -   Clear
12:50 AM 57.2 °F 53.6 °F 88% 30.15 in - East 10.4 mph - N/A   Clear
1:50 AM 57.2 °F 51.8 °F 82% 30.15 in - East 11.5 mph - N/A   Clear
2:50 AM 57.2 °F 51.8 °F 82% 30.15 in - East 9.2 mph - N/A   Clear
3:50 AM 56 °F 51 °F 77% 30.14 in 16 mi East 10.4 mph - -   Scattered Clouds
3:50 AM 55.4 °F 51.8 °F 88% 30.12 in 6.2 mi East 10.4 mph - N/A   Mostly Cloudy
4:50 AM 55.4 °F 50.0 °F 82% 30.12 in 6.2 mi East 9.2 mph - N/A   Mostly Cloudy
5:50 AM 57.2 °F 51.8 °F 82% 30.12 in 6.2 mi East 8.1 mph - N/A Fog Mostly Cloudy
6:50 AM 57.2 °F 50.0 °F 77% 30.12 in 6.2 mi East 8.1 mph - N/A Fog Mostly Cloudy
7:50 AM 59.0 °F 50.0 °F 72% 30.12 in 6.2 mi ESE 10.4 mph - N/A   Mostly Cloudy
8:15 AM 59.0 °F 50.0 °F 72% 30.12 in 6.2 mi ESE 13.8 mph - N/A   Mostly Cloudy
8:50 AM 60.8 °F 50.0 °F 68% 30.09 in 6.2 mi ESE 12.7 mph - N/A   Mostly Cloudy
9:29 AM 62.6 °F 51.8 °F 68% 30.09 in 6.2 mi SE 9.2 mph - N/A   Mostly Cloudy
9:50 AM 62 °F 53 °F 63% 30.11 in 16 mi East 11.5 mph - -   Scattered Clouds
9:50 AM 62.6 °F 51.8 °F 68% 30.09 in 6.2 mi East 11.5 mph - N/A   Mostly Cloudy
10:50 AM 60.8 °F 53.6 °F 77% 30.06 in 6.2 mi East 13.8 mph - N/A   Mostly Cloudy
11:50 AM 60.8 °F 53.6 °F 77% 30.06 in 6.2 mi East 15.0 mph - N/A   Scattered Clouds
12:50 PM 61 °F 54 °F 71% 30.07 in 12 mi East 19.6 mph - -   Clear
12:50 PM 60.8 °F 53.6 °F 77% 30.06 in - East 19.6 mph - N/A   Clear
1:50 PM 62.6 °F 53.6 °F 72% 30.04 in - East 21.9 mph - N/A   Clear
2:50 PM 62.6 °F 53.6 °F 72% 30.04 in - East 23.0 mph - N/A   Clear
3:50 PM 62 °F 54 °F 69% 30.03 in 12 mi East 21.9 mph - -   Clear
3:50 PM 62.6 °F 55.4 °F 77% 30.01 in - East 21.9 mph - N/A   Clear
4:50 PM 62.6 °F 55.4 °F 77% 30.01 in - East 24.2 mph - N/A   Clear
5:50 PM 60.8 °F 55.4 °F 82% 30.01 in - East 21.9 mph - N/A   Clear
6:50 PM 61 °F 55 °F 73% 30.00 in 12 mi East 18.4 mph - -   Scattered Clouds
6:50 PM 60.8 °F 55.4 °F 82% 29.98 in 6.2 mi East 18.4 mph - N/A   Mostly Cloudy
7:50 PM 62.6 °F 55.4 °F 77% 29.98 in - East 11.5 mph - N/A   Clear
8:50 PM 62.6 °F 55.4 °F 77% 29.98 in - East 10.4 mph - N/A   Clear
9:50 PM 60 °F 55 °F 77% 30.00 in 9 mi East 12.7 mph - -   Scattered Clouds
9:50 PM 59.0 °F 55.4 °F 88% 29.98 in 6.2 mi East 12.7 mph - N/A   Scattered Clouds
10:50 PM 57.2 °F 53.6 °F 88% 29.98 in 6.2 mi East 9.2 mph - N/A   Scattered Clouds
11:50 PM 55.4 °F 51.8 °F 88% 29.98 in 6.2 mi SSW 2.3 mph - N/A   Scattered Clouds